Temp
81 81 79 79 79 79 78 77 75 75 75 75 75 74 73 73 72 70 69 69 69 67 68 67 66 67 67 69 70 70 69 70 67 71 75 75 72 73 76 75 72 69 69
82 80 79 79 78 76 75 74 74 73 74 74 74 73 73 72 71 69 68 68 67 65 65 64 64 67 63 64 65 63 64 66 66 61 67 70 69 71 72 72 76 80 78
82 79 77 75 75 73 72 72 72 72 72 72 72 71 70 70 69 68 67 66 65 63 63 62 60 58 57 58 57 56 58 60 59 58 60 67 69 71 70 70 72 73 78
82 79 74 72 72 72 71 71 70 70 69 69 69 69 69 68 67 66 64 61 60 61 60 59 58 58 56 55 56 57 57 56 57 57 55 56 60 64 66 65 67 73 73
78 75 72 72 72 72 70 69 69 67 68 68 66 65 65 65 63 57 58 57 56 56 58 59 60 58 57 56 55 54 53 52 53 53 55 57 57 59 58 59 57 62 64
74 73 72 72 71 69 68 67 66 65 65 63 63 63 62 64 47 47 49 54 55 55 56 58 57 57 57 54 53 52 51 49 48 49 51 52 52 55 57 58 55 51 51
72 72 71 70 69 68 67 65 63 61 61 60 61 61 57 56 46 45 46 53 54 56 54 53 54 58 54 54 52 52 52 51 50 49 46 48 49 51 52 50 50 51 50
69 68 68 67 65 65 63 61 60 60 59 59 59 57 56 56 47 44 45 53 55 56 55 54 53 52 52 51 51 51 52 52 52 53 50 49 50 51 51 47 45 46 50
63 63 64 63 62 61 59 58 58 58 57 56 57 57 55 53 44 44 46 54 55 55 55 54 54 54 49 44 47 46 47 49 53 49 47 46 45 44 47 50 43 43 42
58 59 60 60 58 57 56 55 54 53 54 56 56 56 52 53 43 43 47 53 51 51 54 55 51 50 44 43 44 43 42 46 48 49 49 48 48 49 46 48 47 42 43
56 57 58 58 55 56 53 51 51 51 53 52 53 54 54 53 52 44 44 51 50 49 51 53 56 46 43 42 42 41 40 44 44 45 47 47 49 49 51 50 50 47 44
54 55 54 53 53 53 50 51 51 52 51 51 50 51 54 54 49 47 44 43 46 47 50 53 53 45 42 41 41 41 40 41 42 43 45 46 47 49 50 51 50 49 50
50 50 51 51 51 51 51 50 52 52 50 48 49 48 51 54 53 46 44 42 44 49 52 50 44 42 42 45 43 42 42 43 43 42 43 46 49 51 51 50 51 51 50
47 48 49 49 46 50 52 52 51 51 48 49 47 45 47 47 47 48 48 49 47 51 51 52 49 44 44 45 47 47 47 45 43 42 42 44 46 48 48 49 48 48 46
44 46 47 48 46 46 50 49 49 50 44 45 45 44 43 40 44 39 39 42 44 44 41 45 46 45 44 45 44 45 45 45 45 43 42 42 42 43 43 44 44 45 43
40 43 45 46 45 43 43 45 42 41 41 40 39 39 43 41 38 37 37 37 37 37 41 42 40 40 40 40 40 41 42 43 43 45 44 43 42 42 42 43 43 43 42
39 40 42 43 44 43 45 46 45 47 42 41 39 38 39 37 38 37 38 37 37 38 42 39 38 38 38 39 39 40 40 42 44 44 44 44 43 43 42 43 43 44 43
41 41 42 43 43 43 45 45 45 44 43 45 42 40 40 38 38 38 38 41 51 47 40 37 37 37 37 37 38 39 40 41 42 41 43 45 44 44 44 44 45 44 45
42 43 44 44 45 44 44 43 43 42 42 42 44 42 40 38 39 39 38 43 45 46 40 38 37 37 38 38 39 40 40 40 39 40 41 42 46 46 47 48 48 41 42
42 40 42 46 47 46 45 43 41 41 40 40 40 38 40 40 40 40 37 38 40 42 41 37 38 40 41 40 39 39 39 39 38 38 39 40 44 49 49 52 50 49 49
43 51 40 52 49 47 45 43 42 40 39 39 38 37 34 37 37 38 37 36 36 37 39 38 39 41 42 40 39 38 37 36 36 36 36 38 47 51 54 54 52 51 51
51 52 52 51 51 49 47 47 45 42 41 40 39 41 35 42 41 39 38 38 37 38 39 39 39 41 40 39 38 37 35 34 34 34 34 37 42 52 54 55 54 51 50
52 52 52 51 49 45 48 48 46 43 42 41 41 41 42 42 42 42 42 43 41 39 40 40 40 40 41 41 40 36 33 33 33 34 35 37 40 50 57 54 54 52 50
51 52 51 50 48 49 46 46 46 41 42 42 42 42 41 42 42 42 42 43 45 45 43 41 41 40 41 42 39 35 34 34 34 35 35 38 44 51 53 52 51 51 50
50 51 50 48 47 47 47 45 44 43 42 42 42 41 41 42 41 41 42 44 46 48 48 45 44 43 42 43 39 35 34 32 33 33 37 46 53 59 54 50 49 49 49
49 49 48 47 45 46 44 43 40 40 39 40 41 39 40 40 39 40 41 44 47 48 50 49 48 44 43 44 39 34 33 32 33 33 40 47 51 56 54 51 50 51 51
MSLP
1011.48 1012.12 1012.86 1013.29 1013.78 1014.05 1014.30 1014.63 1015.12 1015.40 1015.53 1015.63 1015.56 1015.49 1015.33 1015.19 1014.95 1014.91 1014.80 1014.42 1013.84 1013.71 1013.48 1013.11 1012.65 1012.34 1011.82 1011.24 1010.64 1010.19 1009.67 1008.99 1007.69 1006.96 1006.28 1005.85 1005.64 1005.40 1004.87 1004.80 1004.77 1004.76 1004.67
1011.75 1012.47 1013.10 1013.55 1014.02 1014.27 1014.58 1015.00 1015.36 1015.50 1015.61 1015.60 1015.55 1015.37 1015.25 1015.10 1014.96 1014.79 1014.46 1014.27 1013.93 1013.58 1013.30 1013.10 1012.62 1012.06 1011.98 1011.70 1011.32 1010.89 1010.20 1009.75 1008.95 1007.86 1007.31 1006.64 1006.20 1005.73 1005.21 1004.88 1004.51 1003.89 1003.72
1011.90 1012.80 1013.50 1013.89 1014.21 1014.71 1015.12 1015.42 1015.68 1015.75 1015.70 1015.72 1015.58 1015.39 1015.20 1015.15 1014.88 1014.71 1014.54 1014.23 1014.02 1014.04 1013.61 1013.08 1012.99 1012.88 1012.60 1012.29 1012.25 1011.77 1011.25 1010.67 1010.00 1009.30 1008.21 1007.29 1006.41 1005.92 1005.41 1005.04 1004.52 1003.99 1003.82
1011.92 1012.67 1013.72 1014.36 1014.73 1015.13 1015.57 1015.84 1015.91 1016.01 1015.92 1015.78 1015.64 1015.46 1015.37 1015.26 1015.09 1014.77 1014.77 1014.97 1014.84 1014.23 1013.86 1013.59 1013.30 1012.90 1012.59 1012.53 1012.19 1011.72 1011.24 1010.89 1010.33 1009.59 1008.94 1008.32 1007.65 1006.93 1006.47 1005.66 1004.55 1003.91 1003.50
1012.61 1013.41 1014.29 1014.75 1015.10 1015.31 1015.78 1016.08 1016.14 1016.18 1015.98 1015.91 1015.80 1015.75 1015.59 1015.36 1015.47 1015.95 1015.82 1015.63 1015.10 1014.52 1014.01 1013.44 1012.95 1012.84 1012.82 1012.60 1012.36 1011.97 1011.75 1011.36 1010.76 1010.02 1009.14 1008.33 1007.79 1007.28 1006.71 1006.52 1006.43 1005.54 1004.51
1013.67 1014.11 1014.65 1015.08 1015.36 1015.65 1016.02 1016.17 1016.24 1016.26 1016.18 1016.22 1016.08 1015.81 1015.59 1015.61 1016.57 1016.59 1016.60 1016.00 1015.25 1014.47 1013.74 1013.34 1013.16 1012.86 1012.33 1012.38 1012.34 1012.29 1012.21 1011.66 1011.11 1010.55 1009.73 1008.94 1008.40 1008.00 1007.61 1007.20 1006.76 1006.88 1006.10
1014.44 1014.78 1015.18 1015.59 1015.70 1015.93 1016.26 1016.32 1016.30 1016.46 1016.44 1016.30 1015.98 1015.81 1016.02 1016.26 1016.56 1016.70 1016.61 1015.99 1015.03 1014.11 1013.81 1013.52 1013.19 1012.73 1012.76 1012.40 1012.12 1011.82 1011.43 1011.17 1010.92 1010.57 1009.86 1009.38 1008.85 1008.69 1008.42 1008.22 1007.95 1007.45 1006.81
1015.42 1015.73 1015.92 1016.08 1016.26 1016.37 1016.63 1016.61 1016.68 1016.66 1016.55 1016.24 1015.98 1016.07 1016.12 1016.17 1016.58 1016.55 1016.42 1015.44 1014.47 1013.74 1013.48 1013.29 1013.05 1012.76 1012.56 1012.41 1011.98 1011.40 1010.80 1010.32 1009.96 1009.69 1009.41 1009.11 1008.82 1008.62 1008.48 1008.52 1008.40 1007.86 1007.22
1016.60 1016.79 1016.83 1016.89 1016.86 1016.99 1016.99 1016.99 1017.12 1016.91 1016.85 1016.59 1016.20 1016.10 1016.12 1016.24 1016.44 1016.50 1016.29 1015.11 1014.09 1013.74 1013.35 1013.06 1012.80 1012.36 1012.06 1012.18 1012.05 1011.36 1010.60 1009.89 1009.24 1008.83 1008.64 1008.43 1008.30 1008.19 1008.15 1007.98 1007.87 1007.55 1006.88
1017.86 1017.89 1017.73 1017.70 1017.80 1017.73 1017.69 1017.73 1017.86 1017.85 1017.34 1016.72 1016.38 1016.16 1016.06 1015.98 1016.47 1016.46 1016.12 1015.23 1014.48 1014.05 1013.44 1012.79 1012.37 1012.18 1012.11 1012.09 1011.98 1011.35 1010.38 1009.47 1008.91 1008.41 1008.08 1007.77 1007.56 1007.25 1007.20 1007.26 1007.02 1006.84 1006.70
1018.89 1018.64 1018.41 1018.43 1018.47 1018.24 1018.34 1018.52 1018.28 1017.89 1017.30 1016.95 1016.56 1016.25 1015.85 1015.88 1016.01 1016.10 1015.98 1015.52 1014.95 1014.31 1013.39 1012.51 1011.87 1011.61 1011.63 1011.42 1011.13 1010.79 1010.02 1009.34 1008.69 1008.07 1007.39 1006.91 1006.58 1006.25 1006.03 1005.96 1005.92 1006.05 1005.99
1019.52 1019.19 1019.10 1019.11 1019.01 1018.91 1018.88 1018.53 1018.16 1017.66 1017.35 1017.04 1016.76 1016.39 1016.01 1015.92 1015.78 1015.75 1015.73 1015.52 1015.30 1014.56 1013.46 1012.66 1011.96 1011.51 1011.17 1010.50 1010.06 1009.47 1009.03 1008.71 1008.12 1007.42 1006.72 1006.09 1005.64 1005.25 1005.14 1005.01 1004.92 1005.08 1005.18
1020.31 1020.02 1019.76 1019.72 1019.61 1019.31 1018.90 1018.55 1018.04 1017.64 1017.64 1017.42 1017.04 1016.75 1016.24 1015.80 1015.76 1015.85 1015.42 1015.38 1014.90 1014.30 1013.29 1012.57 1012.09 1011.35 1010.60 1009.71 1008.92 1008.50 1008.11 1007.69 1007.17 1006.71 1005.97 1005.26 1004.86 1004.53 1004.47 1004.55 1004.48 1004.48 1004.58
1020.89 1020.61 1020.36 1020.08 1020.08 1019.30 1018.92 1018.61 1018.37 1018.05 1018.08 1017.74 1017.58 1017.28 1016.79 1016.56 1016.57 1016.30 1016.02 1015.45 1014.64 1013.68 1013.10 1012.49 1011.75 1011.12 1010.36 1009.63 1008.65 1007.92 1007.28 1006.80 1006.37 1005.83 1005.22 1004.74 1004.46 1004.20 1004.03 1004.10 1004.06 1004.08 1004.05
1021.58 1021.08 1020.82 1020.48 1020.28 1019.82 1019.24 1019.25 1018.99 1018.92 1019.42 1019.02 1018.38 1018.04 1017.56 1017.47 1017.19 1017.51 1017.03 1016.01 1015.22 1014.53 1014.30 1012.95 1011.84 1011.17 1010.32 1009.38 1008.57 1007.85 1007.09 1006.30 1005.57 1004.94 1004.44 1004.03 1003.89 1003.81 1003.73 1003.87 1003.82 1003.78 1003.60
1022.22 1021.83 1021.31 1020.95 1020.69 1020.49 1020.02 1019.36 1019.37 1019.32 1019.26 1019.22 1019.21 1019.04 1018.51 1018.07 1017.76 1017.05 1016.39 1015.63 1014.81 1014.21 1014.07 1013.17 1012.33 1011.63 1010.82 1009.93 1008.94 1007.91 1007.04 1006.14 1005.34 1004.37 1003.60 1003.32 1003.19 1003.15 1003.15 1003.23 1003.25 1003.22 1003.09
1022.43 1022.19 1021.73 1021.29 1020.96 1020.50 1019.90 1019.39 1019.06 1018.97 1018.80 1018.78 1018.96 1018.88 1018.68 1018.17 1017.50 1016.90 1016.05 1014.85 1013.78 1013.64 1013.84 1013.36 1012.77 1012.05 1011.24 1010.32 1009.32 1008.27 1007.09 1006.07 1005.03 1004.14 1003.33 1002.58 1002.50 1002.47 1002.61 1002.52 1002.42 1002.41 1002.36
1022.51 1022.20 1021.89 1021.51 1021.21 1020.80 1020.30 1019.88 1019.59 1019.36 1018.98 1018.61 1018.61 1018.85 1018.50 1017.90 1017.33 1016.85 1015.92 1014.23 1013.09 1012.85 1013.78 1013.62 1013.07 1012.40 1011.57 1010.58 1009.49 1008.40 1007.23 1006.14 1005.02 1004.00 1003.10 1002.21 1001.73 1001.81 1001.74 1001.62 1001.52 1001.46 1001.40
1022.55 1022.28 1021.89 1021.68 1021.20 1021.15 1020.82 1020.59 1020.37 1020.21 1019.64 1019.28 1018.96 1018.71 1018.68 1017.97 1017.22 1016.98 1016.40 1015.44 1014.50 1013.94 1014.12 1013.82 1013.39 1012.59 1011.66 1010.69 1009.67 1008.56 1007.61 1006.46 1005.32 1004.14 1003.16 1002.26 1001.31 1001.18 1000.99 1000.79 1000.57 1000.59 1000.62
1022.76 1022.43 1021.92 1021.43 1020.99 1020.91 1020.88 1020.83 1020.85 1020.63 1020.35 1020.00 1019.71 1019.45 1019.01 1018.20 1017.54 1017.28 1017.27 1016.74 1015.95 1015.18 1014.55 1014.19 1013.56 1012.63 1011.61 1010.70 1009.78 1008.79 1007.69 1006.69 1005.47 1004.33 1003.25 1002.37 1001.40 1000.76 1000.43 999.90 999.66 999.54 999.37
1022.59 1021.22 1021.50 1020.72 1020.82 1021.06 1021.18 1021.14 1021.14 1021.00 1020.83 1020.55 1020.23 1019.95 1019.59 1019.10 1018.59 1017.99 1017.67 1017.37 1016.91 1016.10 1015.18 1014.59 1013.76 1012.76 1011.83 1011.10 1010.18 1009.19 1008.23 1007.23 1006.22 1005.13 1003.81 1002.67 1001.26 1000.47 999.91 999.35 999.32 999.14 999.13
1021.77 1021.23 1020.89 1020.75 1020.86 1021.08 1021.21 1020.85 1021.08 1021.06 1020.88 1020.65 1020.32 1019.70 1019.42 1019.10 1018.69 1018.31 1017.89 1017.52 1017.07 1016.53 1015.81 1015.00 1014.10 1013.24 1012.51 1011.65 1010.68 1009.77 1008.85 1007.77 1006.47 1005.54 1004.57 1003.25 1001.93 1000.22 999.54 999.26 999.48 999.68 999.91
1021.91 1021.60 1021.24 1021.25 1021.61 1021.44 1021.20 1021.01 1021.24 1021.30 1021.07 1020.81 1020.37 1019.87 1019.51 1019.27 1018.78 1018.37 1017.91 1017.32 1016.70 1016.34 1015.88 1015.19 1014.44 1013.62 1012.78 1011.92 1011.19 1010.77 1009.86 1008.53 1007.33 1006.23 1004.81 1003.64 1002.12 1000.73 999.95 999.94 999.98 1000.16 1000.46
1022.20 1021.85 1021.77 1021.81 1022.18 1021.63 1021.92 1021.62 1021.64 1021.67 1021.43 1021.13 1020.65 1020.40 1020.12 1019.67 1019.23 1018.85 1018.38 1017.62 1016.63 1015.76 1015.35 1015.15 1014.60 1013.96 1013.02 1011.98 1011.47 1011.04 1010.17 1009.04 1007.55 1006.05 1004.73 1003.21 1001.80 1000.59 1000.32 1000.32 1000.50 1000.66 1000.93
1022.67 1022.28 1022.32 1022.48 1022.50 1022.34 1022.22 1022.33 1022.27 1022.17 1021.92 1021.57 1021.21 1021.11 1020.72 1020.28 1019.96 1019.42 1018.89 1017.75 1016.61 1015.54 1014.71 1014.57 1014.34 1013.80 1013.17 1012.06 1011.73 1011.16 1010.07 1008.78 1007.36 1005.98 1004.04 1002.32 1000.69 1000.32 1000.60 1000.88 1001.05 1001.22 1001.41
1023.28 1023.07 1023.11 1023.22 1023.39 1023.06 1023.08 1022.97 1023.21 1023.12 1022.82 1022.38 1021.92 1021.85 1021.37 1021.02 1020.70 1019.96 1019.27 1018.01 1016.82 1015.82 1014.93 1014.23 1013.93 1013.79 1013.20 1012.57 1012.24 1011.47 1010.37 1008.99 1007.54 1006.10 1004.64 1003.22 1001.96 1001.13 1001.26 1001.41 1001.54 1001.56 1001.67
Wind_Speed
13 11 11 9 8 6 6 5 5 4 6 7 9 10 11 12 12 10 11 14 14 14 13 14 15 14 12 12 11 12 12 13 14 12 13 13 14 14 12 7 8 8 6
12 11 9 7 7 6 5 5 5 5 6 8 10 11 12 14 13 14 16 16 16 16 15 16 16 12 14 13 11 14 14 13 13 16 13 12 14 15 14 14 11 13 10
11 10 8 6 6 6 5 5 6 7 8 10 11 12 14 15 15 16 16 16 14 16 16 14 12 12 10 8 9 9 10 10 11 12 13 13 12 12 12 12 11 11 11
9 9 7 6 6 5 5 6 7 8 10 11 13 14 15 16 16 15 12 14 15 14 14 12 12 11 9 9 11 12 10 10 11 11 9 9 10 12 11 12 11 10 10
7 8 6 5 5 5 7 8 9 10 11 13 14 14 14 12 9 11 12 14 14 14 13 12 12 13 17 14 9 10 11 10 10 11 11 10 8 10 10 7 10 13 13
7 7 6 6 7 7 8 10 11 12 13 13 13 13 12 8 7 10 10 12 13 13 12 13 13 15 11 14 12 11 11 12 12 11 12 12 12 9 10 11 9 8 10
6 6 7 7 8 10 11 12 12 13 12 13 12 11 10 8 4 4 6 12 13 12 12 10 11 11 14 11 12 16 14 14 14 13 13 12 12 11 9 11 12 12 9
8 8 9 10 11 11 12 12 12 11 12 11 11 9 8 6 2 5 8 14 11 11 11 12 10 11 11 12 15 16 15 14 13 10 11 10 9 9 9 7 9 9 8
10 10 11 11 11 12 12 12 11 11 11 11 10 10 10 8 7 5 11 12 11 13 12 12 11 13 12 10 12 15 16 17 14 14 16 16 16 16 16 10 8 7 7
10 11 11 11 11 11 11 11 11 10 11 9 11 10 8 7 6 3 10 9 11 11 13 12 11 11 8 9 11 12 14 16 13 14 13 11 12 12 15 12 9 8 7
10 10 10 10 10 10 10 10 9 10 10 10 11 9 8 6 6 4 7 10 9 11 11 11 11 8 11 16 18 12 14 15 16 13 12 10 10 11 9 10 11 9 8
10 9 10 10 9 8 9 8 9 9 9 9 9 9 8 8 6 7 9 10 12 11 13 12 12 19 25 23 16 17 18 16 8 9 9 10 9 8 7 8 8 9 9
9 8 9 9 8 9 8 8 8 8 7 8 7 8 9 9 9 12 8 8 12 11 11 13 16 18 21 16 13 16 15 8 8 8 9 9 8 7 7 6 7 7 8
8 8 8 8 9 8 7 7 7 7 8 8 8 8 9 9 9 10 12 13 14 13 14 14 16 14 14 13 12 10 8 8 8 9 9 8 7 7 6 6 6 6 6
9 8 8 7 8 9 9 8 7 8 7 9 8 9 10 10 10 15 15 13 12 15 17 11 9 9 10 10 11 11 10 10 9 9 9 8 7 6 6 5 6 5 6
7 7 7 7 7 7 7 7 6 3 6 5 8 7 10 11 17 20 20 21 21 21 8 7 8 9 10 11 12 12 11 12 11 10 9 7 7 6 6 6 6 6 7
7 8 7 7 7 7 7 8 9 8 1 4 8 9 10 12 16 18 20 23 24 13 4 6 8 9 10 11 11 12 13 12 13 10 10 7 6 7 6 6 6 6 7
8 7 6 7 7 8 9 9 8 9 9 9 6 9 12 13 17 13 20 22 5 2 6 8 9 10 10 11 12 13 13 13 11 11 10 10 6 6 6 7 6 7 7
7 7 8 6 6 6 8 8 8 9 9 9 9 9 15 21 9 11 18 11 11 10 8 8 9 10 10 11 11 12 13 12 12 11 10 9 6 5 7 7 6 8 7
7 3 5 6 7 8 7 7 8 8 9 9 9 9 11 12 11 11 10 11 11 11 9 10 11 11 11 10 12 12 13 13 13 12 12 10 9 5 6 7 5 6 6
5 5 1 4 5 6 6 6 7 8 8 9 9 7 10 9 10 11 9 9 10 11 11 10 11 11 11 12 12 13 14 13 12 12 12 11 9 3 6 5 3 4 5
5 6 6 7 7 6 6 6 7 8 9 9 8 8 5 9 9 9 9 9 9 9 9 10 10 10 11 12 13 13 15 15 14 13 12 12 10 9 2 4 5 5 6
6 6 7 6 7 4 6 7 8 8 9 9 9 9 11 10 10 11 11 12 8 8 9 10 10 11 12 12 10 11 13 14 15 14 13 11 10 8 5 6 5 4 5
6 6 7 7 6 7 8 8 8 8 9 10 10 10 11 11 12 13 12 11 11 10 7 8 9 15 14 13 11 13 12 14 14 13 17 11 10 5 3 4 4 5 6
6 6 7 7 7 7 8 8 9 10 10 10 10 10 11 12 12 12 13 12 12 12 11 9 9 16 18 21 21 23 22 24 20 21 13 13 12 7 6 4 4 5 7
6 7 7 6 7 7 7 8 9 9 10 10 10 10 11 11 12 12 12 13 13 14 16 12 14 21 20 20 24 24 24 26 24 27 16 13 14 8 6 5 6 4 7
Wind_Direction
151 135 142 130 128 116 98 67 46 2 346 326 326 318 315 313 317 319 306 298 306 312 306 301 304 303 294 295 297 301 300 300 299 304 307 311 320 322 316 243 243 248 250
139 140 134 125 111 88 67 47 11 344 330 320 312 313 311 311 316 312 308 309 308 308 311 313 306 307 323 321 321 324 314 309 298 294 291 291 286 294 294 294 291 288 283
143 131 119 98 87 65 40 20 342 331 326 315 313 313 314 313 315 312 310 309 323 320 308 314 329 326 313 315 324 316 311 309 305 308 312 313 315 305 303 299 289 267 261
136 105 88 65 51 33 4 345 334 328 321 317 318 318 317 316 316 312 334 329 318 309 318 317 310 301 314 320 303 300 301 308 299 292 285 285 292 303 307 317 302 282 268
101 86 74 63 33 3 348 333 329 322 323 319 319 317 315 317 2 0 338 321 313 313 308 303 302 327 319 303 318 310 310 301 308 306 297 291 290 297 298 317 319 320 319
74 68 45 19 354 347 333 327 323 320 324 321 315 316 317 328 54 31 354 317 305 299 307 317 317 309 315 333 326 313 303 297 291 286 289 296 301 304 296 304 314 311 302
52 43 19 354 341 340 331 326 327 326 321 316 314 319 332 319 87 23 347 312 302 308 310 309 311 317 327 316 324 305 291 283 267 274 275 272 280 288 304 300 292 290 280
28 12 359 348 339 335 330 329 331 323 316 316 319 323 321 335 84 42 328 298 309 306 316 313 314 311 308 310 312 304 300 292 288 285 282 288 279 282 268 278 302 296 295
15 359 353 345 340 337 331 333 326 325 322 317 311 321 317 328 91 33 326 319 327 324 319 318 317 311 325 330 312 301 296 291 291 259 247 261 268 270 268 281 266 266 276
2 353 349 347 340 333 332 332 335 321 307 320 321 317 325 311 131 25 355 324 331 322 317 319 303 285 302 299 305 297 290 290 295 294 292 284 270 262 252 248 249 245 249
358 348 345 345 342 333 342 332 316 309 318 317 323 319 309 1 334 33 333 323 322 319 313 313 310 308 303 306 295 285 273 286 289 285 284 276 269 264 257 244 230 224 238
350 345 350 350 342 338 326 313 321 318 318 327 326 329 326 329 332 341 288 277 297 306 307 309 308 327 310 296 293 284 277 277 274 274 275 276 268 263 265 259 243 216 226
349 352 348 343 345 322 328 331 317 336 340 328 335 329 329 334 342 325 311 320 304 298 301 291 297 297 299 300 283 275 282 278 271 270 271 269 272 262 256 266 261 240 233
359 359 357 355 343 342 332 350 335 343 347 336 340 334 329 337 338 345 335 326 319 315 334 321 307 304 297 303 314 319 311 280 263 264 265 267 276 290 275 261 251 239 237
358 2 4 356 359 345 359 347 349 2 352 335 349 340 338 332 339 332 319 314 314 305 311 302 321 324 325 329 330 326 320 312 303 266 262 257 253 250 249 247 252 257 250
359 359 2 352 1 358 341 322 145 200 308 273 282 313 334 328 331 322 315 305 298 291 296 325 323 326 327 328 325 323 323 317 311 307 282 252 246 242 241 233 229 231 237
9 2 353 357 354 351 345 354 349 353 150 169 265 288 318 315 322 321 313 307 292 277 359 336 328 328 326 324 323 322 321 320 311 314 307 274 237 238 229 240 235 229 229
3 3 360 359 355 351 350 355 356 351 348 354 45 8 335 332 325 320 327 314 354 60 17 339 330 326 324 323 321 323 322 320 323 316 309 307 236 233 240 233 230 229 230
3 7 358 352 359 353 2 0 1 350 349 358 351 360 4 335 337 12 347 354 344 353 348 337 331 323 320 319 321 322 323 323 320 319 319 310 291 227 243 245 240 230 226
2 295 314 348 358 3 6 6 359 357 357 356 355 3 355 343 1 7 4 354 349 344 338 340 330 324 320 329 329 328 328 332 329 329 325 318 314 241 244 254 232 245 222
318 327 200 4 18 16 4 8 6 358 360 354 350 13 350 334 359 353 360 352 348 340 338 336 329 327 336 336 332 332 332 330 329 330 324 325 323 256 263 275 67 24 84
328 3 10 20 9 13 355 23 16 7 2 1 352 355 354 358 3 351 356 345 345 340 334 335 333 339 338 335 334 337 333 329 329 328 323 319 316 299 291 52 96 67 73
11 5 17 31 1 7 10 22 18 13 2 1 360 3 2 359 0 0 354 346 355 341 342 342 340 339 337 335 344 341 331 328 325 318 315 310 302 304 24 64 69 76 85
3 19 20 11 32 2 20 18 15 12 5 4 4 8 359 359 2 358 355 347 342 343 359 349 346 342 341 338 352 341 331 328 322 318 315 295 286 256 49 62 68 94 92
7 20 22 27 3 16 15 18 18 9 3 8 7 4 359 2 3 356 352 341 346 345 351 4 354 353 349 349 359 345 340 338 336 333 325 319 324 101 104 82 92 93 105
29 22 33 21 18 10 19 19 15 13 359 5 4 1 358 7 358 352 345 337 351 349 351 358 6 4 354 357 355 345 346 344 345 342 339 346 359 22 79 89 98 105 118